Location: Hawks Ness
(60.2333°N, 1.1667°W)
Time: 23:47:52
(UTC+00:00)

Cosmos 1726 Rocket - Pass Details

Date: 22 October 2019
Orbit: 602 x 631 km, 82.5° (Epoch: 12 November)

Event Time Altitude Azimuth Distance (km) Brightness Sun altitude
Rises 03:48:24 0° 346° (NNW) 2,876 7.1 -24.2°
Reaches altitude 10° 03:50:39 10° 350° (N) 1,966 6.2 -23.9°
Maximum altitude 03:54:57 63° 72° (ENE) 678 3.9 -23.4°
Drops below altitude 10° 03:59:14 10° 154° (SSE) 1,950 6.2 -22.9°
Sets 04:01:28 0° 158° (SSE) 2,850 7.0 -22.7°
